Location: St Paul
(33.9360°N, 83.4200°W)
Time: 18:19:16
(UTC-04:00)

Cosmos 2360 - Pass Details

Date: 06 October 2017
Orbit: 847 x 855 km, 70.8° (Epoch: 17 October)

Event Time Altitude Azimuth Distance (km) Brightness Sun altitude
Rises 20:33:35 0° 343° (NNW) 3,427 7.7 -18.0°
Reaches altitude 10° 20:36:05 10° 347° (NNW) 2,488 6.9 -18.5°
Maximum altitude 20:41:44 59° 67° (ENE) 978 4.2 -19.7°
Enters shadow 20:44:26 30° 134° (SE) 1,471 5.0 -20.2°
